Kobrin, Belarus

9:31 PM +03 on December 07, 2016 (GMT +0300)
Brest

Weather History for UMBB - September, 2013

Change the Weather History Date:

Tuesday, September 17, 2013

  Actual Average Record
Temperature  
Mean Temperature 60 °F -  
Max Temperature 63 °F - - ()
Min Temperature 57 °F - - ()
Degree Days  
Heating Degree Days 5    
Growing Degree Days 10 (Base 50)    
Moisture  
Dew Point 58 °F    
Average Humidity 94    
Maximum Humidity 100    
Minimum Humidity 81    
Precipitation  
Precipitation 0.08 in - - ()
Sea Level Pressure  
Sea Level Pressure 29.55 in    
Wind  
Wind Speed 4 mph ()    
Max Wind Speed 9 mph    
Max Gust Speed -    
Visibility 2.9 miles    
Events Fog , Rain    
T = Trace of Precipitation, MM = Missing Value Source: Averaged Metar Reports

Daily Weather History Graph

Daily Weather History Graph

Search for Another Location

Airport or City:

Trip Planner

Search our weather history database for the weather conditions in past years. The results will help you decide how hot, cold, wet, or windy it might be!

Date:

Astronomy

Sep. 17, 2013 Rise Set
Actual Time 7:02 AM +03 7:34 PM +03
Civil Twilight 6:28 AM +03 8:08 PM +03
Nautical Twilight 5:47 AM +03 8:48 PM +03
Astronomical Twilight 5:04 AM +03 9:31 PM +03
Moon 6:18 PM +03 (9/17) 4:22 AM +03 (9/17)
Length of Visible Light 13h 40m
Length of Day
12h 32m
Waxing Gibbous, 94% of the Moon is Illuminated
Sep 17
Waxing Gibbous
Sep 19
Full
Sep 27
Last Quarter
Oct 5
New
Oct 12
First Quarter

Hourly Weather History & Observations

Time (+03) Temp. Dew Point Humidity Pressure Visibility Wind Dir Wind Speed Gust Speed Precip Events Conditions
12:00 AM 60 °F 58 °F 93% 29.61 in 4 mi South 2.2 mph - -   Overcast
3:00 AM 58 °F 58 °F 99% 31.05 in 3 mi South 2.2 mph - -   Overcast
5:00 AM 57.2 °F 57.2 °F 100% 29.53 in 1.0 mi SE 4.5 mph - N/A   Overcast
6:00 AM 57.2 °F 57.2 °F 100% 29.53 in 0.9 mi Calm Calm - N/A   Overcast
6:28 AM 57.2 °F 57.2 °F 100% 29.53 in 0.2 mi Calm Calm - N/A Fog Fog
7:00 AM 57.2 °F 57.2 °F 100% 29.53 in 0.2 mi Calm Calm - N/A Fog Fog
7:01 AM 57.2 °F 57.2 °F 100% 29.53 in 0.2 mi Calm Calm - N/A Fog Fog
8:00 AM 57.2 °F 57.2 °F 100% 29.53 in - Calm Calm - N/A Fog Fog
8:30 AM 57.2 °F 57.2 °F 100% 29.53 in 0.5 mi ESE 4.5 mph - N/A Fog Fog
9:00 AM 59.0 °F 57.2 °F 94% 29.53 in 1.0 mi ESE 6.7 mph - N/A   Overcast
9:30 AM 59.0 °F 57.2 °F 94% 29.50 in 1.6 mi ESE 6.7 mph - N/A   Overcast
10:00 AM 59.0 °F 59.0 °F 100% 29.50 in - East 6.7 mph - N/A   Overcast
10:30 AM 59.0 °F 59.0 °F 100% 29.50 in - SE 8.9 mph - N/A   Overcast
11:00 AM 62.6 °F 59.0 °F 88% 29.50 in 3.1 mi SE 8.9 mph - N/A   Overcast
11:30 AM 62.6 °F 59.0 °F 88% 29.50 in 3.1 mi SE 6.7 mph - N/A   Overcast
12:00 PM 62 °F 59 °F 87% 29.50 in 5 mi SE 6.7 mph - - Rain Light Rain
12:00 PM 62.6 °F 59.0 °F 88% 29.50 in 3.7 mi SE 6.7 mph - N/A   Overcast
12:20 PM 62.6 °F 59.0 °F 88% 29.50 in 3.1 mi ESE 8.9 mph - N/A Rain Light Rain Showers
12:30 PM 62.6 °F 59.0 °F 88% 29.50 in 3.1 mi SE 8.9 mph - N/A Rain Light Rain Showers
1:00 PM 59.0 °F 59.0 °F 100% 29.50 in - ESE 6.7 mph - N/A Rain Light Rain Showers
1:30 PM 59.0 °F 59.0 °F 100% 29.47 in 3.7 mi SE 8.9 mph - N/A   Overcast
2:00 PM 60.8 °F 59.0 °F 94% 29.47 in 3.7 mi SE 6.7 mph - N/A   Overcast
2:30 PM 60.8 °F 59.0 °F 94% 29.47 in 3.7 mi SE 8.9 mph - N/A   Partly Cloudy
3:00 PM 63 °F 59 °F 81% 29.47 in 6 mi SE 8.9 mph - -   Partly Cloudy
3:00 PM 62.6 °F 59.0 °F 88% 29.47 in 3.7 mi SE 6.7 mph - N/A   Mostly Cloudy
3:30 PM 62.6 °F 59.0 °F 88% 29.47 in 3.7 mi SE 6.7 mph - N/A   Scattered Clouds
4:00 PM 62.6 °F 59.0 °F 88% 29.47 in 4.3 mi SE 8.9 mph - N/A   Scattered Clouds
4:30 PM 62.6 °F 59.0 °F 88% 29.47 in 3.7 mi SE 8.9 mph - N/A   Scattered Clouds
6:00 PM 63 °F 61 °F 92% 29.46 in 4 mi South 6.7 mph - - Rain Rain
9:00 PM 59 °F 57 °F 92% 29.48 in 5 mi SW 4.5 mph - -   Mist